Location: Liddington
(51.5167°N, 1.7000°W)
Time: 11:30:58
(UTC+00:00)

Daily predictions for brighter satellites

Satellite Brightness Start Highest point End
(mag) Time Altitude Azimuth Time Altitude Azimuth Time Altitude Azimuth
Cosmos 2360 Rocket 4.1 16:34:29 10° N 16:36:43 12° NNE 16:38:57 10° NE
Okean 3 Rocket 3.8 16:32:24 10° NNW 16:36:55 80° W 16:41:23 10° S
Cosmos 1842 Rocket 4.0 16:35:49 10° SSE 16:40:02 43° E 16:44:17 10° NNE
Cosmos 2221 2.8 16:35:59 10° SSE 16:40:06 47° E 16:44:15 10° NNE
SL-08 R/B 3.4 16:40:00 10° NNE 16:44:41 58° ESE 16:49:16 10° S
Cosmos 1766 Rocket 4.4 16:44:01 10° NNW 16:48:17 55° W 16:52:33 10° S
Cosmos 2084 3.5 16:44:47 10° NW 16:49:03 87° NE 16:53:30 10° SE
deb Kosmos-1763 3.8 16:45:51 10° SSW 16:49:15 85° ESE 16:52:42 10° NNE
Cosmos 1656 3.8 16:44:06 10° NNW 16:49:39 86° WSW 16:55:16 10° SSE
Cosmos 1862 4.5 16:49:42 10° NNW 16:53:33 47° W 16:57:24 10° SSW
NOSS 2-1 (E) 3.4 16:51:17 10° WSW 16:54:27 54° NW 16:57:56 10° NE
NOSS 2-2 (C) 4.3 16:50:50 10° NW 16:55:24 51° NE 17:01:40 10° ESE
MOS 1 Rocket 4.0 16:50:27 10° N 16:55:30 60° WNW 17:00:13 10° SSW
FengYun 1-2 T 4.2 16:50:01 10° SSE 16:55:33 67° ENE 17:01:04 10° N
H-2A R/B 2.7 16:52:04 10° SE 16:56:36 32° ENE 17:01:03 10° N
Cosmos 2322 Rocket 3.7 16:53:11 10° NNW 16:56:48 17° NNE 17:00:05 11° ENE
Cosmos 1666 4.3 16:54:54 10° NNE 16:56:52 14° ENE 16:58:50 10° E
ERBS 2.3 16:53:42 10° WSW 16:56:54 69° NNW 16:59:46 13° ENE
Cosmos 2034 Rocket 4.1 16:50:58 10° SSE 16:56:56 56° E 17:02:56 10° NNE
USA 306 3.0 16:55:39 10° W 16:59:54 68° NNW 17:03:44 13° ENE
Meteor 2-19 Rocket 4.5 16:54:09 10° N 17:00:17 88° E 17:06:24 10° S
Cosmos 1697 Rocket 2.7 16:55:22 10° NNW 17:00:59 66° NE 17:06:34 10° SE
Cosmos 1271 Rocket 3.6 16:58:06 10° SSW 17:01:58 52° WNW 17:05:54 10° N
Cosmos 2369 3.9 16:58:39 10° NNW 17:04:17 51° NE 17:09:51 10° SE
USA 267 3.5 16:58:13 10° ENE 17:04:40 62° SE 17:11:08 10° SW
Cosmos 1980 Rocket 2.5 16:59:17 10° NNW 17:04:43 43° NE 17:10:05 10° ESE
COSMO-SKYMED 1 4.2 17:05:08 13° ENE 17:06:50 15° E 17:09:25 10° SE
Cosmos 1763 Rocket 3.8 17:03:35 10° S 17:08:24 45° ESE 17:13:17 10° NE
SL-24 R/B - RUBIN 2 3.8 17:05:04 10° NW 17:09:39 51° NE 17:13:55 10° ESE
Cosmos 1939 Rocket 2.8 17:06:02 10° SSE 17:10:07 72° ENE 17:14:12 10° N
Meteor 1-25 Rocket 4.2 17:04:34 10° N 17:10:07 64° ENE 17:15:41 10° SSE
Cosmos 1937 Rocket 3.5 17:08:48 10° NNW 17:14:06 63° ENE 17:19:23 10° SE
SL-16 R/B 3.4 17:09:54 10° NNW 17:14:18 22° NE 17:17:26 15° ENE
Cosmos 1812 4.3 17:13:48 10° SE 17:16:15 16° E 17:16:31 16° E
Cosmos 2237 Rocket 4.4 17:15:28 10° NNW 17:16:21 10° N 17:17:15 10° N
Cosmos 1633 Rocket 4.1 17:13:43 10° NNE 17:17:14 23° ENE 17:20:45 10° ESE
USA 307 3.0 17:13:57 10° W 17:18:14 65° N 17:21:20 18° ENE
USA 229 DEB 4.1 17:11:19 10° NW 17:18:35 79° SW 17:26:21 10° SE
USA 229 4.1 17:11:25 10° NW 17:18:41 79° SW 17:26:26 10° SE
Cosmos 1634 Rocket 4.4 17:12:52 10° SSE 17:18:42 41° E 17:24:34 10° NNE
Cosmos 2082 Rocket 3.3 17:17:00 10° SSE 17:21:31 25° ESE 17:24:28 17° ENE
YAOGAN 1 4.0 17:22:20 17° NE 17:22:20 17° NE 17:24:56 10° NNE
Cosmos 2333 Rocket 4.0 17:19:28 10° N 17:22:18 14° NNE 17:24:11 12° NE
Cosmos 990 Rocket 4.4 17:17:30 10° NNW 17:22:42 68° WSW 17:27:49 10° SSE
Cosmos 2026 Rocket 4.0 17:16:47 10° N 17:22:53 59° ENE 17:28:53 10° SSE
NOAA 6 4.0 17:18:20 10° SSE 17:23:30 88° E 17:28:40 10° NNW
SeaSat 1 4.1 17:20:12 10° NNE 17:24:19 27° NW 17:28:24 10° W
Cosmos 2195 Rocket 4.4 17:20:00 10° N 17:26:09 72° ENE 17:32:20 10° SSE
ATLAS 2AS CENTAUR R/B 3.9 17:20:47 10° W 17:27:49 36° NNW 17:33:27 14° NE
CZ-4B DEB 4.1 17:22:36 10° SSE 17:28:06 78° ENE 17:33:38 10° NNW
CORIOLIS 4.1 17:22:48 10° SSE 17:28:13 87° ENE 17:33:42 10° NNW
Cosmos 372 Rocket 4.1 17:23:15 10° NNW 17:28:25 55° ENE 17:33:33 10° SE
Cosmos 2278 4.0 17:23:11 10° NNW 17:28:43 47° NE 17:34:12 10° SE
Cosmos 1602 3.6 17:25:00 10° N 17:28:51 68° ENE 17:32:42 10° SSE
Cosmos 1743 Rocket 3.7 17:26:38 10° NNW 17:30:58 76° W 17:35:16 10° S
Okean O Rocket 2.2 17:27:20 10° SE 17:31:21 34° ENE 17:35:25 10° N
ATLAS CENTAUR R/B 3.1 17:29:08 10° W 17:32:51 27° NNW 17:36:14 12° NNE
SL-16 R/B 4.4 17:32:13 10° NW 17:34:21 12° NNW 17:36:29 10° N
Meteor 2-14 Rocket 4.4 17:29:01 10° N 17:35:08 67° ENE 17:41:10 10° SSE
Cosmos 1782 3.1 17:33:11 10° SSE 17:36:57 42° E 17:39:44 17° NNE
Cosmos 1151 Rocket 4.0 17:33:27 10° SE 17:37:03 26° E 17:38:08 24° ENE
COSMOS 2406 3.4 17:33:23 10° S 17:38:55 51° ESE 17:43:04 18° NE
USA 234 3.9 17:33:48 10° SE 17:40:13 57° SW 17:46:39 10° WNW
COSMOS 2455 3.4 17:35:10 10° S 17:40:39 38° ESE 17:43:55 22° ENE
USA 308 3.0 17:36:28 10° W 17:40:42 62° N 17:42:51 27° ENE
Cosmos 1666 Rocket 3.8 17:38:04 10° N 17:42:21 44° ENE 17:46:35 10° SSE
Cosmos 1340 Rocket 4.3 17:41:16 10° NNW 17:45:05 40° W 17:48:54 10° SSW
ARGOS 3.3 17:39:53 10° SE 17:45:06 50° ENE 17:50:18 10° N
Cosmos 1833 Rocket 2.6 17:39:49 10° SSW 17:45:24 71° ESE 17:49:48 17° NE
ISS -3.3 17:45:04 10° W 17:48:26 59° SSW 17:50:10 25° SE
NOSS 2-2 (D) 4.2 17:43:49 10° NW 17:48:45 87° SW 17:55:40 10° SE
NOSS 2-2 (E) 4.5 17:44:14 10° NW 17:49:18 76° SW 17:56:28 10° SE
Cosmos 1809 Rocket 4.5 17:44:38 10° NNW 17:50:46 84° W 17:56:51 10° S
Cosmos 2219 Rocket 4.0 17:48:47 10° N 17:51:49 14° NNE 17:52:22 14° NNE
CZ-2D R/B 3.2 17:48:47 10° SSE 17:52:37 84° WSW 17:56:29 10° NNW
PAYLOAD B 4.3 17:49:31 10° SSE 17:55:09 85° WSW 18:00:48 10° NNW
SKYMED 2 4.0 17:53:45 29° NE 17:55:20 40° E 17:59:26 10° SSE
Lacrosse 5 rocket 1.4 17:51:32 10° WNW 17:55:21 54° NNE 17:56:30 38° ENE
Meteor 2-21 Rocket 4.3 17:50:46 10° N 17:56:54 73° ENE 18:02:58 10° SSE
CZ-4 R/B 3.2 17:59:49 17° NNE 17:59:49 17° NNE 18:00:59 10° N
Landsat 5 4.4 18:00:26 29° ESE 18:00:26 29° ESE 18:03:16 10° SSE
ATLAS CENTAUR R/B 2.7 17:52:47 10° SW 18:01:40 68° SSE 18:03:25 36° ENE
CZ-4B R/B 3.0 17:56:37 10° SSE 18:02:02 81° ENE 18:07:24 10° NNW
Cosmos 1500 3.2 17:59:25 10° NNW 18:03:11 77° W 18:06:54 10° S
CZ-2C R/B 2.7 17:59:22 16° NNE 18:03:20 51° E 18:08:22 10° S
SL-08 RB Rocket 3.9 18:00:23 10° SE 18:04:50 49° ENE 18:09:17 10° N
Cosmos 540 Rocket 3.3 18:00:05 10° SSW 18:05:10 78° ESE 18:08:24 23° NNE
GEOS 3 Rocket 3.6 18:02:08 23° ESE 18:05:26 65° NE 18:10:34 10° NW
Cosmos 1818 3.6 18:01:01 10° NW 18:06:28 59° NE 18:09:03 30° ESE
Meteor 1-11 Rocket 4.2 18:01:26 10° N 18:06:35 36° ENE 18:07:51 32° E
USA 305 3.0 18:03:44 10° WNW 18:07:56 62° N 18:08:56 46° ENE
Cosmos 1814 Rocket 4.3 18:04:08 10° S 18:09:02 43° ESE 18:10:09 38° ENE
Cosmos 44 Rocket 3.3 18:05:22 10° NW 18:10:18 57° NE 18:11:47 40° E
CZ-4C R/B 2.9 18:03:27 10° NW 18:10:28 87° NE 18:18:48 10° SE
Sich 1 3.6 18:07:41 10° NNW 18:11:54 57° W 18:16:07 10° S
Meteor 1-26 Rocket 4.3 18:06:40 10° S 18:12:40 87° E 18:18:45 10° NNE
Cosmos 1933 4.1 18:09:44 10° SSW 18:13:42 53° WNW 18:17:35 11° N
Cosmos 468 Rocket 4.4 18:10:15 10° SW 18:15:21 60° WNW 18:19:26 16° NNE
Feng Yun 1-1 Rocket 4.3 18:15:03 10° SSE 18:20:54 66° ENE 18:26:43 10° NNW
Cosmos 2360 Rocket 3.2 18:17:51 10° NNW 18:22:14 28° NNE 18:22:14 28° NNE
COSMOS 2428 4.4 18:24:36 10° NNW 18:27:32 17° NNE 18:27:32 17° NNE
deb Chang Zheng 4 4.0 18:24:52 10° S 18:29:08 62° WSW 18:33:26 10° NNW
Cosmos 1666 3.0 18:29:08 10° NNW 18:32:51 63° W 18:36:30 10° S
ERBS 4.0 18:30:17 10° WNW 18:32:20 26° NW 18:32:20 26° NW
Cosmos 2208 Rocket 4.3 18:28:51 10° S 18:33:46 49° ESE 18:33:46 49° ESE
H-2A R/B 3.1 18:31:00 10° S 18:35:56 44° W 18:40:46 10° NNW
Cosmos 2150 Rocket 3.9 18:31:35 10° NNW 18:36:44 63° ENE 18:37:02 62° E
Cosmos 2142 Rocket 4.4 18:32:19 10° S 18:38:29 85° W 18:44:46 10° N
USA 306 3.0 18:35:49 10° WNW 18:39:44 64° NNW 18:39:44 64° NNW
Cosmos 2322 Rocket 2.4 18:36:42 10° NNW 18:41:56 50° NE 18:41:56 50° NE
COSMO-SKYMED 1 2.7 18:42:21 47° N 18:43:30 72° WNW 18:47:50 10° SSW
USA 267 3.4 18:45:34 43° NE 18:47:47 68° NNW 18:54:17 10° W
Cosmos 2279 Rocket 4.0 18:41:54 10° SSW 18:48:07 78° W 18:54:22 10° N
Cosmos 1980 Rocket 3.4 18:43:26 10° NW 18:48:45 42° WSW 18:54:00 10° S
Cosmos 2266 Rocket 3.9 18:43:19 10° N 18:49:44 81° E 18:56:09 10° SSE
Cosmos 1812 3.5 18:47:51 10° SSW 18:51:35 50° WNW 18:51:36 50° WNW
Spot 2 4.5 18:51:14 18° SSE 18:55:11 82° WSW 19:00:21 10° NNW
Cosmos 1633 Rocket 4.1 18:51:05 10° NNW 18:55:16 46° W 18:59:26 10° SSW
Cosmos 841 Rocket 4.0 18:50:32 10° SW 18:55:36 57° WNW 18:57:22 38° N
YAOGAN 1 3.7 18:59:29 36° NNW 18:59:29 36° NNW 19:02:07 10° NNW
Cosmos 1125 Rocket 3.4 18:52:30 10° NNW 18:57:27 78° N 18:57:27 78° N
USA 307 3.7 18:54:07 10° WNW 18:57:22 49° NW 18:57:22 49° NW
SL-16 R/B 2.0 18:53:37 10° NNW 18:59:20 79° ENE 18:59:20 79° ENE
Cosmos 2237 Rocket 4.3 19:00:05 10° N 19:01:32 13° N 19:01:32 13° N
Meteor 2-15 Rocket 4.3 18:57:46 10° S 19:03:20 68° SE 19:03:20 68° SE
Cosmos 2082 Rocket 2.4 18:59:29 10° SW 19:05:09 68° WNW 19:06:21 53° N
Okean O Rocket 3.3 19:03:41 10° SSW 19:07:42 33° W 19:11:47 10° NNW
Cosmos 2333 Rocket 3.7 19:03:16 10° NNW 19:06:12 25° N 19:06:12 25° N
ATLAS CENTAUR R/B 3.9 19:10:17 10° NW 19:12:21 16° NNW 19:12:21 16° NNW
Cosmos 1151 Rocket 4.4 19:10:25 10° SW 19:14:27 38° WNW 19:15:01 36° NW
NOSS 3-4 (A) 4.3 19:11:37 10° NW 19:17:15 43° NNE 19:17:15 43° NNE
NOSS 3-4 (C) 4.3 19:11:43 10° NW 19:17:20 42° NNE 19:17:20 42° NNE
ATLAS 2AS CENTAUR R/B 3.7 19:13:55 10° NW 19:20:45 35° NNE 19:20:53 35° NNE
Cosmos 1655 Rocket 4.4 19:14:51 10° NNW 19:21:10 62° W 19:27:25 10° S
COSMOS 2406 4.4 19:18:07 10° WSW 19:23:26 37° NW 19:25:09 31° N
ISS -0.5 19:22:27 10° W 19:23:10 13° WSW 19:23:10 13° WSW
COSMOS 2455 3.3 19:20:32 10° WSW 19:26:27 55° NW 19:27:05 52° NNW
Cosmos 1833 Rocket 4.3 19:24:58 10° WSW 19:29:51 29° NW 19:31:31 25° NNW
CZ-4 R/B 4.3 19:35:48 12° NNW 19:35:48 12° NNW 19:36:07 10° NNW
Lacrosse 5 rocket 3.7 19:30:39 10° WNW 19:32:07 21° WNW 19:32:07 21° WNW
Cosmos 2219 Rocket 4.0 19:32:08 10° NNW 19:34:05 20° N 19:34:05 20° N
CZ-2C R/B 4.3 19:40:54 20° NNW 19:43:25 29° WNW 19:47:49 10° WSW
ATLAS 5 CENTAUR R/B 4.4 19:43:58 10° WNW 19:47:04 21° W 19:47:04 21° W
CZ-4C R/B 4.4 19:52:25 10° WNW 19:58:44 32° WSW 20:05:34 11° S
Cosmos 2360 Rocket 4.0 20:01:38 10° NNW 20:04:00 26° NW 20:04:00 26° NW
Cosmos 2322 Rocket 4.2 20:21:03 10° NW 20:23:46 25° WNW 20:23:46 25° WNW
USA 267 4.4 20:32:54 37° NW 20:32:54 37° NW 20:36:48 10° WNW
